Location: Biharia
(46.4333°N, 22.8000°E)
Time: 00:44:26
(UTC+00:00)

H-2A R/B - Pass Details

Date: 16 October 2021
Orbit: 732 x 837 km, 98.2° (Epoch: 02 December)

Event Time Altitude Azimuth Distance (km) Brightness Sun altitude
Rises 16:43:21 0° 173° (S) 3,302 5.2 -11.6°
Reaches altitude 10° 16:45:40 10° 176° (S) 2,390 4.5 -12.0°
Maximum altitude 16:50:56 65° 259° (WSW) 904 2.6 -12.9°
Drops below altitude 10° 16:56:22 10° 341° (NNW) 2,454 4.9 -13.9°
Sets 16:58:47 0° 345° (NNW) 3,397 5.6 -14.3°
